Weather History for KABI - December, 2012

Change the Weather History Date:

Monday, December 31, 2012

  Actual Average Record
Temperature  
Mean Temperature 52 °F 44 °F  
Max Temperature 64 °F 56 °F 85 °F (1951)
Min Temperature 39 °F 33 °F 9 °F (1958)
Degree Days  
Heating Degree Days 13 21  
Month to date heating degree days 493 612  
Since 1 July heating degree days 835 1045  
Cooling Degree Days 0 0  
Month to date cooling degree days 16 1  
Year to date cooling degree days 3049 2409  
Growing Degree Days 3 (Base 50)    
Moisture  
Dew Point 40 °F    
Average Humidity 62    
Maximum Humidity 93    
Minimum Humidity 30    
Precipitation  
Precipitation 0.03 in 0.04 in 0.96 in (1984)
Month to date precipitation 0.04 1.23  
Year to date precipitation 23.20 24.82  
Sea Level Pressure  
Sea Level Pressure 29.99 in    
Wind  
Wind Speed 10 mph (SSW)    
Max Wind Speed 26 mph    
Max Gust Speed 40 mph    
Visibility 9 miles    
Events Rain    
T = Trace of Precipitation, MM = Missing Value Source: NWS Daily Summary

Daily Weather History Graph

Daily Weather History Graph

Search for Another Location

Airport or City:

Trip Planner

Search our weather history database for the weather conditions in past years. The results will help you decide how hot, cold, wet, or windy it might be!

Date:

Astronomy

Dec. 31, 2012 Rise Set
Actual Time 7:40 AM CST 5:44 PM CST
Civil Twilight 7:13 AM CST 6:11 PM CST
Nautical Twilight 6:42 AM CST 6:41 PM CST
Astronomical Twilight 6:12 AM CST 7:11 PM CST
Moon 9:03 PM CST 9:33 AM CST
Length of Visible Light 10h 58m
Length of Day
10h 03m
Waning Gibbous, 90% of the Moon is Illuminated
Dec 31
Waning Gibbous
Jan 4
Last Quarter
Jan 11
New
Jan 18
First Quarter
Jan 26
Full

Hourly Weather History & Observations

Time (CST) Temp. Windchill Dew Point Humidity Pressure Visibility Wind Dir Wind Speed Gust Speed Precip Events Conditions
12:52 AM 39.0 °F 28.8 °F 34.0 °F 82% 30.06 in 10.0 mi South 21.9 mph 29.9 mph 0.00 in Rain Light Rain
1:52 AM 39.0 °F 28.0 °F 34.0 °F 82% 30.03 in 10.0 mi SSE 25.3 mph 31.1 mph 0.00 in   Overcast
2:52 AM 39.0 °F 29.0 °F 35.1 °F 86% 30.01 in 10.0 mi South 20.7 mph 27.6 mph 0.00 in Rain Light Rain
3:52 AM 39.9 °F 32.1 °F 37.9 °F 93% 30.00 in 10.0 mi SSE 13.8 mph - 0.01 in Rain Light Rain
4:08 AM 41.0 °F 33.9 °F 39.2 °F 93% 30.01 in 9.0 mi SSE 12.7 mph - 0.01 in Rain Light Rain
4:52 AM 41.0 °F 31.6 °F 39.0 °F 93% 29.93 in 10.0 mi SSE 20.7 mph - 0.02 in   Mostly Cloudy
5:52 AM 44.1 °F 36.5 °F 43.0 °F 96% 29.94 in 9.0 mi SSE 17.3 mph - N/A   Overcast
6:52 AM 46.0 °F 43.9 °F 44.1 °F 93% 29.96 in 10.0 mi South 4.6 mph - N/A   Overcast
8:52 AM 48.0 °F - 46.0 °F 93% 30.00 in 8.0 mi Calm Calm - N/A   Overcast
9:52 AM 46.9 °F - 45.0 °F 93% 30.02 in 7.0 mi Calm Calm - N/A   Overcast
10:01 AM 46.4 °F 45.2 °F 44.6 °F 93% 30.02 in 6.0 mi East 3.5 mph - N/A   Overcast
10:09 AM 48.2 °F - 46.4 °F 93% 30.03 in 7.0 mi East 3.5 mph - N/A   Overcast
10:52 AM 52.0 °F - 48.9 °F 89% 30.01 in 10.0 mi Variable 3.5 mph - N/A   Scattered Clouds
11:14 AM 53.6 °F - 48.2 °F 82% 30.03 in 10.0 mi SW 4.6 mph - N/A   Mostly Cloudy
11:50 AM 57.2 °F - 48.2 °F 72% 30.01 in 10.0 mi SW 15.0 mph - N/A   Scattered Clouds
11:52 AM 57.9 °F - 48.0 °F 70% 30.00 in 10.0 mi SW 16.1 mph - N/A   Scattered Clouds
12:00 PM 59.0 °F - 48.2 °F 67% 30.01 in 10.0 mi WSW 17.3 mph - N/A   Mostly Cloudy
12:08 PM 57.2 °F - 46.4 °F 67% 30.01 in 10.0 mi WSW 12.7 mph - N/A   Partly Cloudy
12:52 PM 57.9 °F - 44.1 °F 60% 29.96 in 10.0 mi SW 9.2 mph - N/A   Clear
1:52 PM 59.0 °F - 41.0 °F 51% 29.94 in 10.0 mi WSW 10.4 mph - N/A   Clear
2:52 PM 62.1 °F - 39.0 °F 43% 29.92 in 10.0 mi WSW 8.1 mph 17.3 mph N/A   Clear
3:52 PM 63.0 °F - 37.0 °F 38% 29.92 in 10.0 mi WSW 9.2 mph - N/A   Clear
4:52 PM 63.0 °F - 30.0 °F 29% 29.92 in 10.0 mi West 12.7 mph - N/A   Clear
5:52 PM 57.0 °F - 30.9 °F 37% 29.94 in 10.0 mi SW 5.8 mph - N/A   Clear
6:52 PM 54.0 °F - 30.9 °F 41% 29.95 in 10.0 mi West 3.5 mph - N/A   Clear
7:52 PM 50.0 °F - 30.9 °F 48% 29.98 in 10.0 mi SW 3.5 mph - N/A   Clear
8:52 PM 46.0 °F 44.8 °F 32.0 °F 58% 30.00 in 10.0 mi West 3.5 mph - N/A   Clear
9:52 PM 46.9 °F - 34.0 °F 61% 30.01 in 10.0 mi North - - N/A   Mostly Cloudy
10:45 PM 44.6 °F 39.7 °F 39.2 °F 81% 30.05 in 10.0 mi NNE 9.2 mph - N/A   Overcast
10:52 PM 45.0 °F 40.6 °F 39.9 °F 82% 30.04 in 10.0 mi NNE 8.1 mph - N/A   Overcast
11:18 PM 44.6 °F 40.2 °F 39.2 °F 81% 30.07 in 9.0 mi NE 8.1 mph - N/A   Overcast
11:52 PM 44.1 °F 40.1 °F 39.9 °F 85% 30.05 in 8.0 mi NNE 6.9 mph - N/A   Overcast